Weather History for Nashua, NH

Change the Weather History Date:

Saturday, January 28, 2012

  Actual Average Record
Temperature  
Mean Temperature 40 °F -  
Max Temperature 45 °F 33 °F 53 °F (1996)
Min Temperature 34 °F 10 °F -20 °F (1994)
Degree Days  
Heating Degree Days 26    
Moisture  
Dew Point 26 °F    
Average Humidity 58    
Maximum Humidity 73    
Minimum Humidity 44    
Precipitation  
Precipitation 0.00 in - - ()
Sea Level Pressure  
Sea Level Pressure 29.88 in    
Wind  
Wind Speed 11 mph (WNW)    
Max Wind Speed 24 mph    
Max Gust Speed 45 mph    
Visibility 10 miles    
Events      
Averages and records for this station are not official NWS values.
T = Trace of Precipitation, MM = Missing Value Source: NWS Daily Summary

Daily Weather History Graph

Daily Weather History Graph

Search for Another Location

Airport:

Trip Planner

Search our weather history database for the weather conditions in past years. The results will help you decide how hot, cold, wet, or windy it might be!

Date:

Astronomy

Jan. 28, 2012 Rise Set
Actual Time 7:05 AM EST 4:53 PM EST
Civil Twilight 6:34 AM EST 5:23 PM EST
Nautical Twilight 6:00 AM EST 5:57 PM EST
Astronomical Twilight 5:27 AM EST 6:31 PM EST
Moon 9:16 AM EST (1/28) 10:49 PM EST (1/28)
Length of Visible Light 10h 48m
Length of Day
9h 48m
Waxing Crescent, 27% of the Moon is Illuminated
Jan 28
Waxing Crescent
Jan 30
First Quarter
Feb 7
Full
Feb 14
Last Quarter
Feb 21
New

Hourly Weather History & Observations

Time (EST) Temp. Windchill Dew Point Humidity Pressure Visibility Wind Dir Wind Speed Gust Speed Precip Events Conditions
12:51 AM 39.9 °F 29.5 °F 28.0 °F 63% 29.66 in 10.0 mi WNW 24.2 mph 44.9 mph N/A   Clear
1:51 AM 38.8 °F 31.6 °F 29.1 °F 68% 29.71 in 10.0 mi WNW 11.5 mph - N/A   Overcast
2:51 AM 38.8 °F 29.4 °F 27.1 °F 63% 29.78 in 10.0 mi NW 18.4 mph - N/A   Overcast
3:51 AM 38.8 °F 30.4 °F 26.1 °F 60% 29.83 in 10.0 mi NW 15.0 mph - N/A   Overcast
4:51 AM 37.9 °F 32.1 °F 26.1 °F 62% 29.85 in 10.0 mi WNW 8.1 mph - N/A   Scattered Clouds
5:51 AM 37.9 °F 31.5 °F 25.2 °F 60% 29.89 in 10.0 mi WNW 9.2 mph - N/A   Scattered Clouds
6:51 AM 34.0 °F 28.0 °F 25.2 °F 70% 29.92 in 10.0 mi NW 6.9 mph - N/A   Clear
7:51 AM 34.9 °F - 25.2 °F 68% 29.96 in 10.0 mi Calm Calm - N/A   Clear
8:51 AM 38.8 °F 34.6 °F 24.1 °F 55% 30.00 in 10.0 mi WNW 5.8 mph - N/A   Clear
9:51 AM 39.9 °F 35.1 °F 24.1 °F 53% 30.00 in 10.0 mi NW 6.9 mph - N/A   Clear
10:51 AM 39.9 °F 34.5 °F 24.1 °F 53% 30.00 in 10.0 mi NW 8.1 mph - N/A   Clear
11:51 AM 41.9 °F 37.5 °F 23.0 °F 47% 29.97 in 10.0 mi NW 6.9 mph - N/A   Clear
12:51 PM 45.0 °F 42.6 °F 24.1 °F 44% 29.94 in 10.0 mi Variable 4.6 mph - N/A   Clear
1:51 PM 45.9 °F 42.3 °F 25.2 °F 44% 29.92 in 10.0 mi SSE 6.9 mph - N/A   Clear
2:51 PM 45.9 °F 43.6 °F 26.1 °F 46% 29.90 in 10.0 mi Variable 4.6 mph - N/A   Clear
3:51 PM 43.9 °F 41.3 °F 25.2 °F 48% 29.90 in 10.0 mi SSE 4.6 mph - N/A   Clear
4:51 PM 43.9 °F 40.5 °F 26.1 °F 50% 29.87 in 10.0 mi SSE 5.8 mph - N/A   Clear
5:51 PM 41.0 °F 37.1 °F 27.1 °F 58% 29.86 in 10.0 mi Variable 5.8 mph - N/A   Clear
6:51 PM 39.9 °F 35.8 °F 26.1 °F 58% 29.88 in 10.0 mi Variable 5.8 mph - N/A   Partly Cloudy
7:51 PM 38.8 °F - 27.1 °F 63% 29.88 in 10.0 mi Calm Calm - N/A   Partly Cloudy
8:51 PM 37.9 °F 35.5 °F 27.1 °F 65% 29.86 in 10.0 mi Variable 3.5 mph - N/A   Clear
9:51 PM 34.9 °F - 27.1 °F 73% 29.86 in 10.0 mi Calm Calm - N/A   Clear
10:51 PM 36.9 °F 34.3 °F 28.0 °F 70% 29.85 in 10.0 mi Variable 3.5 mph - N/A   Scattered Clouds
11:51 PM 38.8 °F 31.2 °F 27.1 °F 63% 29.87 in 10.0 mi West 12.7 mph - N/A   Clear